Location: Observatoire de Paris
(48.8363°N, 2.3365°E)
Time: 20:54:07
(UTC+01:00)

BUGSAT 1 - Pass Details

Date: 01 October 2021
Orbit: 557 x 602 km, 98.1° (Epoch: 19 October)

Event Time Altitude Azimuth Distance (km) Brightness Sun altitude
Rises 05:53:02 0° 13° (NNE) 2,789 ? -10.2°
Reaches altitude 10° 05:55:12 10° 13° (NNE) 1,880 ? -9.9°
Maximum altitude 05:59:16 87° 289° (WNW) 572 ? -9.2°
Drops below altitude 10° 06:03:16 10° 197° (SSW) 1,845 ? -8.6°
Sets 06:05:22 0° 197° (SSW) 2,732 ? -8.2°
